Location: Melbourne
(37.8170°S, 144.9670°E)
Time: 12:26:17
(UTC+11:00)

ISS - Visible Passes

Search period start: 12 December 2019 00:00
Search period end: 22 December 2019 00:00
Orbit: 411 x 421 km, 51.6° (Epoch: 12 December)

Date Brightness Start Highest point End Pass type
(mag) Time Alt. Az. Time Alt. Az. Time Alt. Az.
12 Dec -0.8 01:08:06 18° S 01:08:06 18° S 01:09:30 10° SSE visible
13 Dec -0.9 00:20:24 15° SSE 00:20:24 15° SSE 00:21:12 10° SE visible
13 Dec -0.3 01:54:39 10° SSW 01:55:32 11° SSW 01:56:26 10° S visible
13 Dec -0.8 05:08:47 10° SSW 05:11:28 21° SSE 05:14:07 10° ESE visible
13 Dec -1.1 23:32:07 15° SE 23:32:07 15° SE 23:32:48 10° SE visible
14 Dec -0.4 01:04:55 10° SW 01:06:43 13° SSW 01:08:31 10° SSE visible
14 Dec -0.5 04:20:36 10° SSW 04:22:43 15° SSE 04:24:49 10° ESE visible
14 Dec -3.9 22:37:27 10° NW 22:40:51 74° NE 22:44:17 10° SE visible
15 Dec -0.8 00:15:29 10° WSW 00:17:56 18° SSW 00:20:22 10° SSE visible
15 Dec -0.3 03:32:31 10° S 03:33:54 12° SSE 03:35:17 10° SE visible
15 Dec -2.4 05:08:01 10° SW 05:11:21 45° SE 05:14:37 10° ENE visible
15 Dec -3.3 21:49:10 10° NNW 21:52:22 38° NE 21:55:36 10° ESE visible
15 Dec -1.3 23:26:18 10° W 23:29:11 25° SSW 23:32:07 10° SSE visible
16 Dec -1.5 04:19:39 10° SSW 04:22:41 28° SSE 04:25:42 10° E visible
16 Dec -2.2 22:37:16 10° WNW 22:40:30 38° SSW 22:43:46 10° SE visible
17 Dec 0.0 00:16:56 10° SSW 00:18:01 11° SSW 00:19:07 10° S visible
17 Dec -0.8 03:31:21 10° SSW 03:33:57 20° SSE 03:36:33 10° ESE visible
17 Dec -3.7 05:07:35 10° WSW 05:10:57 59° NW 05:14:16 10° NE visible
17 Dec -3.3 21:48:28 10° WNW 21:51:52 66° SW 21:55:19 10° SE visible
17 Dec -0.3 23:27:15 10° SW 23:29:10 14° SSW 23:31:05 10° SSE visible
18 Dec -0.4 02:43:08 10° SSW 02:45:10 15° SSE 02:47:10 10° ESE visible
18 Dec -3.5 04:18:58 10° SW 04:22:24 74° SE 04:25:47 10° NE visible
18 Dec -0.7 22:37:50 10° WSW 22:40:21 19° SSW 22:42:52 10° SSE visible
19 Dec -0.1 01:55:03 10° S 01:56:18 11° SSE 01:57:32 10° SE visible
19 Dec -2.4 03:30:29 10° SW 03:33:47 42° SE 03:37:01 10° ENE visible
19 Dec -2.3 05:07:48 10° W 05:10:17 19° NW 05:12:44 10° N visible
19 Dec -1.3 21:48:36 10° W 21:51:34 26° SSW 21:54:33 10° SSE visible
20 Dec -1.5 02:42:05 10° SSW 02:45:04 27° SSE 02:48:01 10° E visible
20 Dec -3.2 04:18:42 10° WSW 04:21:50 34° NW 04:24:56 10° NNE visible
20 Dec -0.3 22:39:05 10° SW 22:40:20 11° SSW 22:41:35 10° S visible
21 Dec -1.0 01:53:45 10° SSW 01:56:17 19° SSE 01:56:59 18° SE visible
21 Dec -0.5 21:49:24 10° WSW 21:51:26 15° SSW 21:53:28 10° SSE visible
